User: anonymous   Login
Location: Muenchen
(48.1800°N, 11.5800°E)
Time: 05:46:47
(UTC+02:00)
Language:

Tiros 1 - Orbit

View from above orbital plane
View from above orbital plane
View from above satellite
View from above satellite

Ground track
Ground track

The orbit data is extracted from the following two-line orbital elements,

1    29U 60002B   15245.54758934 +.00000009 +00000-0 +32583-4 0  9995
2    29 048.3797 284.8550 0024745 307.0040 052.8607 14.73874832960357
Epoch (UTC): 02 September 2015 13:08:31
Eccentricity: 0.0024745
inclination: 48.3797°
perigee height: 631 km
apogee height: 666 km
right ascension of ascending node: 284.8550°
argument of perigee: 307.0040°
revolutions per day: 14.73874832
mean anomaly at epoch: 52.8607°
orbit number at epoch: 96035

The dashed part of the orbit path shows where the satellite is in the earth's shadow,  

DLR